Location: Boraston
(52.3167°N, 2.5667°W)
Time: 07:04:50
(UTC+00:00)

Daily predictions for brighter satellites

Satellite Brightness Start Highest point End
(mag) Time Altitude Azimuth Time Altitude Azimuth Time Altitude Azimuth
ATLAS 3B R/B 3.3 16:59:05 10° NW 17:05:57 68° SW 17:13:04 10° SSE
Cosmos 1538 Rocket 4.5 17:08:04 10° NNW 17:12:53 37° NE 17:17:40 10° ESE
CZ-4C R/B 2.2 17:08:55 10° SW 17:14:02 88° SE 17:20:21 10° NE
CZ-3B R/B 1.1 17:12:55 10° WNW 17:14:50 52° N 17:18:13 10° E
Meteor 2-5 Rocket 4.1 17:09:41 10° SSE 17:14:53 43° E 17:20:06 10° NNE
Cosmos 783 Rocket 4.5 17:14:28 10° NNW 17:19:44 80° ENE 17:24:59 10° SSE
CORIOLIS 4.1 17:16:35 10° SSE 17:21:58 74° ENE 17:27:21 10° NNW
Cosmos 2263 Rocket 2.5 17:16:43 10° S 17:22:12 52° ESE 17:27:42 10° NE
Cosmos 1455 3.8 17:21:46 10° NNE 17:24:07 15° ENE 17:26:27 10° ESE
Cosmos 968 Rocket 3.6 17:19:44 10° SSW 17:24:51 82° WNW 17:30:00 10° NNE
Envisat 3.9 17:20:20 10° S 17:25:18 54° W 17:30:19 10° NNW
Cosmos 2058 Rocket 3.9 17:22:16 10° N 17:26:13 29° ENE 17:30:10 10° SE
Cosmos 1354 Rocket 4.2 17:21:43 10° S 17:26:54 55° ESE 17:32:07 10° NNE
NOAA 11 4.2 17:21:57 10° SSE 17:27:26 74° ENE 17:32:57 10° NNW
Cosmos 1300 2.7 17:24:55 10° N 17:28:44 62° ENE 17:32:31 10° SSE
NOSS 7 (H) 4.2 17:29:47 10° SSW 17:32:59 61° SE 17:35:34 12° NE
Landsat 5 3.3 17:30:02 10° NNE 17:34:01 78° ESE 17:37:53 10° SSW
Cosmos 1486 Rocket 4.2 17:30:25 10° SSW 17:35:38 73° WNW 17:40:53 10° NNE
ADEOS Rocket 3.8 17:31:58 10° N 17:37:57 50° WNW 17:43:26 10° SW
NOSS 3-1 (C) 4.3 17:32:20 10° NW 17:38:52 45° NNE 17:46:36 10° E
Lacrosse 5 1.8 17:33:55 10° WNW 17:39:00 75° NNE 17:44:03 10° ESE
CREW DRAGON DEMO-1 DEB 2.7 17:36:23 10° W 17:39:17 76° S 17:41:52 12° E
ARGOS 4.2 17:35:39 10° ESE 17:39:47 23° NE 17:43:58 10° N
Cosmos 1943 3.8 17:35:25 10° NW 17:41:03 64° WSW 17:46:37 10° SSE
Cosmos 1726 Rocket 3.6 17:37:38 10° N 17:41:57 57° ENE 17:46:16 10° SSE
ERS-2 3.7 17:42:03 14° ENE 17:43:18 16° E 17:45:39 10° SE
Cosmos 1939 Rocket 2.9 17:42:23 10° SSE 17:46:27 63° ENE 17:50:31 10° N
Meteor 1-24 Rocket 3.6 17:43:41 10° S 17:48:56 61° E 17:54:10 10° NNE
COSMOS 2455 3.6 17:44:13 10° S 17:49:32 34° ESE 17:54:02 14° NE
Cosmos 1833 Rocket 4.0 17:47:53 10° NNW 17:52:06 21° NNE 17:54:41 16° ENE
Cosmos 1674 4.4 17:49:30 10° SW 17:53:03 35° WNW 17:56:38 10° N
Cosmos 2082 Rocket 3.8 17:50:02 10° NNW 17:53:40 17° NNE 17:55:56 14° NE
Cosmos 1315 Rocket 3.2 17:50:36 10° NNW 17:54:33 66° W 17:58:31 10° S
USA 229 DEB 4.3 17:49:07 10° NW 17:55:50 44° NNE 18:01:49 15° E
USA 229 4.3 17:49:13 10° NW 17:55:56 44° NNE 18:01:52 15° E
IRS-1C Rocket 4.1 17:52:18 10° SE 17:57:26 56° ENE 18:02:35 10° N
CZ-4 R/B 1.9 17:55:03 10° SE 17:58:49 37° ENE 18:02:33 10° N
Feng Yun 1-1 Rocket 4.1 17:54:42 10° SSE 18:00:07 76° ENE 18:05:42 10° NNW
COSMO-SKYMED 1 2.9 17:56:50 10° NNE 18:00:59 42° E 18:05:07 10° S
NOSS 3-4 (A) 4.0 17:55:30 10° WSW 18:01:21 52° NNW 18:07:06 13° NE
NOSS 3-4 (C) 4.0 17:55:39 10° WSW 18:01:30 52° NNW 18:07:15 13° NE
Cosmos 2279 Rocket 4.0 17:55:24 10° N 18:01:43 90° NNW 18:07:59 10° S
Cosmos 1503 Rocket 4.3 17:58:15 10° SSW 18:03:38 74° WNW 18:09:03 10° NNE
Cosmos 2227 4.3 18:00:48 10° SSW 18:06:27 84° WNW 18:12:12 10° NNE
Cosmos 2227 Rocket 4.0 18:05:14 10° W 18:09:50 25° NW 18:14:29 10° NNE
CZ-4B R/B 1.4 18:08:14 12° NNE 18:11:14 56° E 18:14:31 10° S
NOSS 3-1 (A) 4.3 18:04:50 10° NW 18:11:25 46° NNE 18:16:57 19° E
CZ-4 R/B 4.3 18:08:07 10° SSE 18:12:13 71° ENE 18:16:23 10° N
Cosmos 923 Rocket 4.2 18:09:28 10° NNW 18:14:43 52° ENE 18:19:54 10° SE
Okean-O 2.7 18:10:40 10° SE 18:14:57 51° ENE 18:19:16 10° N
CSL-04 DEB 4.4 18:10:43 10° NNE 18:15:00 77° ESE 18:19:07 10° SSW
CZ-2C R/B 3.1 18:11:10 10° SSE 18:16:30 79° ENE 18:22:10 10° NNW
Cosmos 1844 Rocket 3.4 18:11:43 10° S 18:16:44 34° ESE 18:19:24 22° ENE
Cosmos 1689 Rocket 4.5 18:20:01 11° SSE 18:20:01 11° SSE 18:20:14 10° SSE
Okean O Rocket 3.1 18:13:47 10° SSW 18:17:59 40° W 18:22:11 10° NNW
Cosmos 1626 3.7 18:15:11 10° SW 18:18:37 35° WNW 18:22:03 10° N
H-2A R/B 2.1 18:14:07 10° SE 18:18:57 52° ENE 18:23:57 10° N
SeaSat 1 4.2 18:14:58 10° NNE 18:18:59 26° NW 18:23:00 10° W
ATLAS 2AS CENTAUR R/B 3.4 18:11:12 10° WSW 18:19:04 59° NNW 18:25:30 15° NE
Aureole 2 Rocket 3.3 18:17:22 10° SSE 18:19:28 26° SE 18:19:28 26° SE
Cosmos 158 Rocket 4.0 18:14:53 10° NNW 18:20:09 60° ENE 18:25:29 10° SE
Cosmos 1680 Rocket 3.7 18:17:01 10° NNW 18:22:06 46° ENE 18:26:36 13° SE
SKYMED 3 4.5 18:20:42 10° NNE 18:25:04 71° ESE 18:29:24 10° S
SAR-Lupe-4 4.0 18:31:27 39° ESE 18:31:27 39° ESE 18:34:42 10° S
Meteor 2-10 Rocket 3.8 18:26:09 10° NNW 18:31:45 77° W 18:37:05 10° S
CZ-2D R/B 3.7 18:28:39 10° S 18:32:29 64° WSW 18:36:20 10° NNW
Cosmos 1818 4.1 18:28:17 10° S 18:33:15 38° ESE 18:34:52 31° E
H-2A R/B 3.2 18:29:11 10° N 18:33:28 44° WNW 18:37:39 10° SW
Cosmos 489 Rocket 4.4 18:27:24 10° NNW 18:33:50 83° ENE 18:40:11 10° SSE
Cosmos 2297 Rocket 4.3 18:30:56 10° WNW 18:34:45 18° NNW 18:38:34 10° NNE
YAOGAN 1 2.4 18:32:33 10° SSE 18:36:52 76° ENE 18:41:13 10° NNW
Cosmos 1892 Rocket 3.6 18:33:49 10° SSW 18:38:09 78° WNW 18:42:31 10° N
CSL-04 Rocket 3.7 18:35:33 10° SE 18:40:50 58° ENE 18:46:14 10° N
Helios 1A Rocket 2.8 18:37:39 10° SSE 18:41:47 70° ENE 18:45:56 10° N
SAR-Lupe-1 4.3 18:42:35 48° ESE 18:42:35 48° ESE 18:45:44 10° S
Aureole 1 4.1 18:40:13 10° NNW 18:43:21 81° WSW 18:44:09 45° SSE
USA 234 3.3 18:40:20 29° E 18:43:54 67° NNE 18:50:25 10° WNW
RESURS DK-1 4.1 18:41:18 10° WSW 18:44:57 29° NW 18:47:47 15° N
Iridium 4 Rocket 3.8 18:39:20 10° N 18:44:58 50° E 18:50:11 10° SSE
MOS 1 Rocket 2.9 18:40:56 10° NNE 18:45:18 85° ESE 18:49:35 10° SSW
ATLAS 5 CENTAUR R/B 2.1 18:41:19 10° WSW 18:45:25 54° NW 18:47:37 28° NNE
Meteor 2-1 Rocket 4.1 18:40:30 10° NNW 18:46:08 89° W 18:51:40 10° S
Cosmos 1092 Rocket 4.1 18:41:04 10° SSE 18:46:59 50° E 18:52:54 10° NNE
Cosmos 1812 Rocket 3.6 18:43:41 10° N 18:48:01 51° ENE 18:48:54 43° ESE
SKYMED 2 3.8 18:44:45 10° N 18:49:07 71° WNW 18:53:26 10° SSW
Cosmos 2344 4.1 18:42:26 10° NW 18:51:05 70° NE 18:59:35 21° ESE
SJ 16-02 1.3 18:51:10 10° S 18:55:31 62° ESE 18:56:00 57° ENE
Aureole 3 3.2 18:52:09 10° NNW 18:55:52 67° W 18:59:00 10° S
SJ-11-01 4.2 18:51:20 10° SSE 18:56:02 87° WSW 19:00:46 10° NNW
Cosmos 2112 Rocket 3.9 18:54:23 10° NNW 18:59:41 74° ENE 19:02:18 30° SE
Cosmos 1455 2.7 18:56:21 10° NNW 19:00:07 60° W 19:03:53 10° S
Cosmos 1777 Rocket 4.4 18:57:10 10° SW 19:02:24 63° WNW 19:06:17 18° NNE
CZ-4C R/B 3.4 18:58:08 10° W 19:03:18 37° NNW 19:06:29 24° NNE
MetOp-A 4.4 19:04:29 44° NE 19:04:29 44° NE 19:09:09 10° N
Nadezhda 4 Rocket 4.0 18:58:04 10° S 19:04:20 85° WNW 19:10:34 10° N
Cosmos 2263 Rocket 3.4 19:01:05 10° WSW 19:06:21 38° NW 19:10:38 15° NNE
X-37B 3.3 19:04:56 10° SSW 19:05:31 12° S 19:05:31 12° S
COSMOS 2406 3.2 19:08:40 10° NNW 19:14:23 57° NE 19:14:49 55° ENE
ERS-2 2.8 19:16:37 46° NW 19:17:08 51° WNW 19:20:40 10° SW
ARGOS 3.3 19:14:13 10° S 19:19:34 74° WSW 19:24:59 10° NNW
ISS -1.5 19:16:43 10° SW 19:17:58 19° SSW 19:17:58 19° SSW
PSLV R/B 4.4 19:19:53 38° N 19:21:18 62° WNW 19:25:27 10° SSW
Lacrosse 5 3.1 19:17:06 10° WNW 19:21:45 37° SW 19:24:15 23° S
CZ-2C R/B 3.2 19:27:19 45° SSE 19:27:19 45° SSE 19:31:20 10° S
NOSS 3-1 (C) 4.0 19:23:11 10° NW 19:30:27 82° SW 19:34:39 33° SE
Cosmos 1626 Rocket 3.9 19:26:32 10° SSW 19:30:53 65° WNW 19:31:14 62° NW
CZ-4 R/B 3.5 19:30:26 10° SSW 19:33:55 27° W 19:37:24 10° NW
COSMOS 2455 3.2 19:29:13 10° SW 19:35:11 63° NW 19:37:12 41° NNE
Cosmos 1553 Rocket 3.9 19:28:47 10° N 19:35:15 72° ENE 19:36:14 62° SE
Cosmos 1833 Rocket 2.8 19:31:27 10° NNW 19:36:25 62° NNE 19:36:25 62° NNE
Cosmos 1844 3.6 19:32:47 10° SSW 19:38:28 85° WNW 19:39:07 71° NNE
Cosmos 2082 Rocket 3.0 19:33:45 10° NNW 19:37:47 38° N 19:37:47 38° N
Cosmos 2026 Rocket 3.8 19:35:14 10° S 19:41:22 89° E 19:47:37 10° N
USA 281 3.7 19:43:33 43° NNE 19:43:33 43° NNE 19:48:47 10° NNW
CZ-4B R/B 4.4 19:41:20 11° NNW 19:43:03 15° WNW 19:44:59 10° W
SL-08 RB Rocket 4.2 19:43:20 58° W 19:43:20 58° W 19:47:38 10° NNW
USA 229 DEB 3.8 19:40:15 10° NW 19:47:30 84° SW 19:49:18 56° SSE
USA 229 3.8 19:40:21 10° NW 19:47:35 85° SW 19:49:21 57° SE
Ariane Rocket 4.3 19:50:14 30° N 19:50:14 30° N 19:52:46 10° NNW
USA 267 4.0 19:51:34 37° S 19:51:34 37° S 19:56:07 10° SSW
IRS-1A Rocket 4.5 19:52:29 66° N 19:52:29 66° N 19:57:32 10° NNW
H-2A R/B 4.0 19:54:30 10° SSW 19:58:42 27° W 20:03:02 10° NW
Cosmos 1844 Rocket 3.3 19:54:52 10° SW 20:00:26 54° NW 20:01:07 51° NNW
NOSS 3-1 (A) 4.0 19:55:45 10° NW 20:03:03 82° SW 20:04:26 64° SSE
ATLAS 2AS CENTAUR R/B 3.9 20:04:21 10° WNW 20:11:31 36° N 20:12:56 34° NNE
Cosmos 1818 4.5 20:11:21 10° WSW 20:15:33 46° W 20:15:33 46° W
USA 234 3.5 20:27:40 65° WSW 20:27:40 65° WSW 20:33:31 10° WNW
ATLAS 5 CENTAUR R/B 4.0 20:27:17 10° WNW 20:29:10 19° NW 20:29:10 19° NW
SJ 16-02 3.9 20:31:02 10° WSW 20:33:02 19° WNW 20:33:02 19° WNW
CZ-4C R/B 4.1 20:47:59 10° NW 20:51:41 28° NNW 20:51:41 28° NNW
